Regional Weather Roundup
Issued by NWS

Home | Current Version | Previous Version | Text Only | Print | Product List | Glossary Off
Versions: 1 2 3 4 5 6 7 8 9 10 11 12 13 14 15 16 17 18 19 20 21 22 23 24 25 26 27 28 29 30 31 32 33 34 35 36 37 38 39 40 41 42 43 44 45 46 47 48 49 50

000
ASUS43 KDTX 272301
RWRMI
MICHIGAN HOURLY REGIONAL WEATHER ROUNDUP
NATIONAL WEATHER SERVICE DETROIT/PONTIAC MI
600 PM EST FRI FEB 27 2015

NOTE: "FAIR" INDICATES FEW OR NO CLOUDS BELOW 12,000 FEET WITH NO
SIGNIFICANT WEATHER AND/OR OBSTRUCTION TO VISIBILITY.

MIZ047>049-052>055-059>063-066>070-074>076-081>083-280000-
SOUTHEAST LOWER MICHIGAN

CITY           SKY/WX    TMP DP  RH WIND       PRES   REMARKS
ADRIAN         CLEAR     15  -2  46 NW7       30.58R WCI   5
ALMA           PTCLDY    17   3  55 SW9       30.53S WCI   5
ANN ARBOR      PTCLDY    15  -2  46 W9        30.56R WCI   3
BAD AXE        CLEAR     14   3  62 SW8       30.52S WCI   3
CARO           CLEAR     14   1  54 SW8       30.53S WCI   3
DETROIT CITY   CLEAR     20  -3  36 NW6       30.57R WCI  12
DETROIT        PTCLDY    17   0  47 SW10      30.58R WCI   5
FLINT          CLEAR     17   0  47 W10       30.54S WCI   5
GROSSE ILE     PTCLDY    16  -2  45 SW9       30.57R WCI   4
HILLSDALE      CLOUDY    15  -1  50 SW5       30.53S WCI   7
HOWELL         CLEAR     15  -1  49 W7        30.53S WCI   5

CITY           SKY/WX    TMP DP  RH WIND       PRES   REMARKS
JACKSON        MOCLDY    14   0  53 W7        30.54S WCI   4
LAMBERTVILLE   CLEAR     18  -2  41 SW3       30.60R
LANSING        PTCLDY    17   3  54 W10       30.55R WCI   5
LAPEER         FAIR      15  -1  48 W5        30.54R WCI   8
MASON          PTCLDY    16   0  49 W8        30.54R WCI   5
MONROE         CLEAR     14  -2  48 SW7       30.58R WCI   4
MT. CLEMENS    PTCLDY    12   2  65 SE8       30.55R WCI   0
PONTIAC        PTCLDY    14  -2  49 W7        30.53R WCI   4
PORT HOPE        N/A     14   0  53 SW8       30.50S WCI   3
PORT HURON     CLEAR     14   0  52 SW5       30.57R WCI   6
TRI CITIES     CLEAR     17   2  51 W14       30.53S WCI   3
TROY           CLEAR     19  -4  35 W9        30.58R WCI   9
SAGINAW HB     CLEAR     18   3  53 SW12      30.54S WCI   5
$$
MIZ043>046-050>051-056>058-064>065-071>073-077>080-280000-
SOUTHWEST LOWER MICHIGAN

CITY           SKY/WX    TMP DP  RH WIND       PRES   REMARKS
BATTLE CREEK   CLOUDY    18   3  52 SW8       30.54S WCI   8
BENTON HARBOR  CLEAR     13   2  61 SW7       30.59S WCI   3
BIG RAPIDS     CLEAR     16   0  50 W9        30.49S WCI   4
COLDWATER      MOCLDY    15   2  57 W3        30.56R
FREMONT        FAIR      15   0  50 W6        30.53S WCI   7
HOLLAND        PTCLDY    16   3  56 SW13      30.57S WCI   2
GRAND RAPIDS   MOCLDY    15   3  59 W13       30.55R WCI   1
IONIA          CLOUDY    17   7  64 W13       30.53R WCI   4
KALAMAZOO      PTCLDY    15  -1  49 W12       30.56R WCI   2
LUDINGTON      CLEAR     17   3  55 SW9       30.53F WCI   5
MARSHALL       CLOUDY    15   3  59 SW8       30.54S WCI   4
MOUNT PLEASANT CLEAR     17   4  56 SW8       30.51S WCI   7
MUSKEGON       PTCLDY    16   3  56 W9        30.56S WCI   4
SOUTH HAVEN    PTCLDY    17   3  55 W8        30.58S WCI   7
$$
MIZ016>042-280000-
NORTHERN LOWER MICHIGAN

CITY           SKY/WX    TMP DP  RH WIND       PRES   REMARKS
ALPENA         CLEAR     18  -1  43 W7        30.46R WCI   9
BEAVER ISLAND  CLEAR     12   3  67 SW8       30.45F WCI   1
BELLAIRE       MOCLDY    15   3  59 SW8       30.50R WCI   4
CADILLAC       CLEAR     11   0  59 SW12      30.43R WCI  -3
CHARLEVOIX     CLOUDY    13   5  70 SW10      30.50S WCI   0
FRANKFORT      PTCLDY    16   7  66 SW9G17    30.50S WCI   5
GAYLORD        CLEAR     11   1  64 W13       30.41R WCI  -4
GRAYLING       CLEAR     16   1  51 W7        30.44R WCI   6
HARBOR SPRINGS MOCLDY    12   3  67 W8        30.47R WCI   1
HOUGHTON LAKE  CLEAR     14   0  53 SW10      30.45R WCI   1
MANISTEE       PTCLDY    16   1  53 SW7       30.52S WCI   6
OSCODA         CLEAR     17   3  53 SW13      30.46S WCI   4
PELLSTON       CLEAR     12   1  61 SW12      30.47S WCI  -2
ROGERS CITY    CLEAR     17   3  55 W6        30.46S WCI   8
TRAVERSE CITY  PTCLDY    15   3  59 SW10G17   30.49R WCI   2
$$
MIZ007>008-015-280000-
EASTERN UPPER MICHIGAN

CITY           SKY/WX    TMP DP  RH WIND       PRES   REMARKS
KINROSS        CLEAR     12   1  62 SW7       30.42S WCI   2
MACKINAC ISLAN CLEAR     10   2  72 SW9       30.45S WCI  -4
NEWBERRY       CLEAR     11   2  68 S8        30.40R WCI  -1
S. S. MARIE    CLEAR     12  -1  56 NW5       30.42R WCI   4
MUNISING         N/A      8  -2  63 NW3       30.40S
$$
MIZ004>006-011>014-085-280000-
CENTRAL UPPER MICHIGAN

CITY           SKY/WX    TMP DP  RH WIND       PRES   REMARKS
MANISTIQUE     CLEAR     15  -1  49 W5        30.43R WCI   8
ESCANABA       CLEAR     16   3  57 S13       30.43S WCI   2
MENOMINEE      CLEAR     18  -2  41 SW10      30.44S WCI   6
SAWYER-GWINN   CLEAR     18  -4  38 W8        30.34S WCI   7
$$
MIZ001>003-009>011-084-280000-
WESTERN UPPER MICHIGAN

CITY           SKY/WX    TMP DP  RH WIND       PRES   REMARKS
IRON MOUNTAIN  CLEAR     19  -3  38 W10       30.35S WCI   7
HOUGHTON       CLEAR     12  -6  44 W15G21    30.33F WCI  -4
COPPER HARBOR    N/A     14  -4  44 W7        30.36S WCI   4
IRONWOOD       CLEAR     14  -8  37 W8        30.35S WCI   3
$$

ABBREVIATIONS USED IN REMARKS
   TC - TEMPERATURE IN CELSIUS
  WCI - WIND CHILL INDEX
   HX - HEAT INDEX
  VSB - VISIBILITY




USA.gov is the U.S. government's official web portal to all federal, state and local government web resources and services.